﻿_id,日時,平均風速(m/s),平均風向,最大瞬間風速(m/s),最大風速時風向,気温(℃),湿度(%),10分間移動積算雨量(mm),1時間移動積算雨量(mm),日雨量(mm),累計雨量(mm)
1,2024-03-18T00:00:00,3.3,北北東,7.4,東北東,7.9,66.4,0,0,0.5,0.5
2,2024-03-18T00:01:00,3.2,北北東,7.4,東北東,7.8,66.9,0,0,0,0.5
3,2024-03-18T00:02:00,3.1,北北東,7.4,東北東,7.8,67.3,0,0,0,0.5
4,2024-03-18T00:03:00,3.2,北北東,7.4,東北東,7.8,67,0,0,0,0.5
5,2024-03-18T00:04:00,3.1,北北東,7.4,東北東,7.8,67,0,0,0,0.5
6,2024-03-18T00:05:00,2.9,北北東,7.4,東北東,7.8,67.4,0,0,0,0.5
7,2024-03-18T00:06:00,2.6,北北東,7.4,東北東,7.7,67,0,0,0,0.5
8,2024-03-18T00:07:00,2.5,北北東,5.6,北東,7.8,66.4,0,0,0,0.5
9,2024-03-18T00:08:00,2.4,北北東,5.5,北東,7.8,67,0,0,0,0.5
10,2024-03-18T00:09:00,2.2,北北東,5.5,北東,7.7,67.1,0,0,0,0.5
11,2024-03-18T00:10:00,1.9,北北東,4.6,北北東,7.7,67.5,0,0,0,0.5
12,2024-03-18T00:11:00,1.8,北北東,4.1,北,7.7,68.2,0,0,0,0.5
13,2024-03-18T00:12:00,1.9,北北東,5.1,東北東,7.7,67.4,0,0,0,0.5
14,2024-03-18T00:13:00,2.1,北北東,7.4,北,7.6,64,0,0,0,0.5
15,2024-03-18T00:14:00,2.5,北北東,7.4,北,7.7,63.9,0,0,0,0.5
16,2024-03-18T00:15:00,2.8,北北東,7.4,北,7.7,64.4,0,0,0,0.5
17,2024-03-18T00:16:00,2.9,北北東,7.4,北,7.7,63,0,0,0,0.5
18,2024-03-18T00:17:00,2.9,北北東,7.4,北,7.7,62.5,0,0,0,0.5
19,2024-03-18T00:18:00,3.1,北北東,8.2,東北東,7.7,62.7,0,0,0,0.5
20,2024-03-18T00:19:00,3.3,北北東,8.2,東北東,7.7,61.4,0,0,0,0.5
21,2024-03-18T00:20:00,3.5,北北東,8.2,東北東,7.7,61.6,0,0,0,0.5
22,2024-03-18T00:21:00,3.7,北北東,8.2,東北東,7.7,61.6,0,0,0,0.5
23,2024-03-18T00:22:00,3.7,北北東,8.2,東北東,7.6,61.8,0,0,0,0.5
24,2024-03-18T00:23:00,3.5,北北東,8.2,東北東,7.6,62.1,0,0,0,0.5
25,2024-03-18T00:24:00,3.5,北北東,8.2,東北東,7.6,61.3,0,0,0,0.5
26,2024-03-18T00:25:00,3.4,北北東,8.2,東北東,7.6,60.6,0,0,0,0.5
27,2024-03-18T00:26:00,3.4,北北東,8.2,東北東,7.6,61.3,0,0,0,0.5
28,2024-03-18T00:27:00,3.5,北東,8.2,東北東,7.6,60,0,0,0,0.5
29,2024-03-18T00:28:00,3.4,北北東,6.3,北北東,7.6,60.1,0,0,0,0.5
30,2024-03-18T00:29:00,3.3,北北東,6.3,北北東,7.6,60.3,0,0,0,0.5
31,2024-03-18T00:30:00,3.1,北北東,6.3,北北東,7.6,60.5,0,0,0,0.5
32,2024-03-18T00:31:00,3.1,北北東,6.3,北北東,7.6,59.7,0,0,0,0.5
33,2024-03-18T00:32:00,3.3,北北東,7.2,北,7.6,59.3,0,0,0,0.5
34,2024-03-18T00:33:00,3.4,北北東,7.2,北,7.6,58.6,0,0,0,0.5
35,2024-03-18T00:34:00,3.2,北北東,7.2,北,7.6,57.5,0,0,0,0.5
36,2024-03-18T00:35:00,3,北北東,7.2,北,7.5,58.5,0,0,0,0.5
37,2024-03-18T00:36:00,2.9,北北東,7.2,北,7.6,58.8,0,0,0,0.5
38,2024-03-18T00:37:00,2.7,北北東,7.2,北,7.5,58.9,0,0,0,0.5
39,2024-03-18T00:38:00,2.6,北北東,7.2,北,7.5,57.9,0,0,0,0.5
40,2024-03-18T00:39:00,2.6,北北東,7.2,北,7.5,57.4,0,0,0,0.5
41,2024-03-18T00:40:00,2.6,北北東,7.2,北,7.5,57.6,0,0,0,0.5
42,2024-03-18T00:41:00,2.6,北北東,7.2,北,7.5,57.1,0,0,0,0.5
43,2024-03-18T00:42:00,2.3,北北東,5.7,北,7.5,57.3,0,0,0,0.5
44,2024-03-18T00:43:00,2,北,4.2,北北東,7.5,58,0,0,0,0.5
45,2024-03-18T00:44:00,1.9,北,4.2,北北東,7.5,57,0,0,0,0.5
46,2024-03-18T00:45:00,1.9,北,4.2,北北東,7.5,57.6,0,0,0,0.5
47,2024-03-18T00:46:00,1.8,北,4.2,北北東,7.6,57.8,0,0,0,0.5
48,2024-03-18T00:47:00,1.9,北,4.2,北北東,7.5,57.5,0,0,0,0.5
49,2024-03-18T00:48:00,1.9,北北西,4,北西,7.5,56.5,0,0,0,0.5
50,2024-03-18T00:49:00,1.8,北北西,4,北西,7.5,57.6,0,0,0,0.5
51,2024-03-18T00:50:00,1.8,北,4,北西,7.4,58.1,0,0,0,0.5
52,2024-03-18T00:51:00,1.6,北,4,北西,7.3,59.5,0,0,0,0.5
53,2024-03-18T00:52:00,1.5,北,4,北西,7.3,60,0,0,0,0.5
54,2024-03-18T00:53:00,1.4,北,4,北西,7.3,59.9,0,0,0,0.5
55,2024-03-18T00:54:00,1.5,北,4,北西,7.3,59.2,0,0,0,0.5
56,2024-03-18T00:55:00,1.5,北北西,4,北西,7.3,58.7,0,0,0,0.5
57,2024-03-18T00:56:00,1.6,北北西,4,北西,7.4,59.2,0,0,0,0.5
58,2024-03-18T00:57:00,1.5,北北西,3.5,北北西,7.3,58.8,0,0,0,0.5
59,2024-03-18T00:58:00,1.6,北,4,北,7.4,59.1,0,0,0,0.5
60,2024-03-18T00:59:00,1.7,北,4.9,北北東,7.3,59,0,0,0,0.5
61,2024-03-18T01:00:00,1.7,北,4.9,北北東,7.4,58,0,0,0,0.5
62,2024-03-18T01:01:00,1.9,北,4.9,北北東,7.3,57.2,0,0,0,0.5
63,2024-03-18T01:02:00,2,北,4.9,北北東,7.3,58.2,0,0,0,0.5
64,2024-03-18T01:03:00,2.1,北,4.9,北北東,7.3,58.4,0,0,0,0.5
65,2024-03-18T01:04:00,2.1,北,4.9,北北東,7.3,58.2,0,0,0,0.5
66,2024-03-18T01:05:00,2.1,北北東,4.9,北北東,7.3,58.8,0,0,0,0.5
67,2024-03-18T01:06:00,2.2,北北東,4.9,北北東,7.3,58.6,0,0,0,0.5
68,2024-03-18T01:07:00,2.3,北北東,4.9,北北東,7.3,57.6,0,0,0,0.5
69,2024-03-18T01:08:00,2.3,北北東,4.9,北北東,7.3,57.9,0,0,0,0.5
70,2024-03-18T01:09:00,2.1,北北東,4.3,北北東,7.3,58.4,0,0,0,0.5
71,2024-03-18T01:10:00,2.2,北北東,4.3,北北東,7.3,58.3,0,0,0,0.5
72,2024-03-18T01:11:00,2.3,北,5.8,北北西,7.3,57.8,0,0,0,0.5
73,2024-03-18T01:12:00,2.4,北,5.8,北北西,7.3,56.7,0,0,0,0.5
74,2024-03-18T01:13:00,2.4,北,5.8,北北西,7.3,57.5,0,0,0,0.5
75,2024-03-18T01:14:00,2.3,北,5.8,北北西,7.3,57.9,0,0,0,0.5
76,2024-03-18T01:15:00,2.3,北,5.8,北北西,7.2,58.7,0,0,0,0.5
77,2024-03-18T01:16:00,2.2,北,5.8,北北西,7.2,57.4,0,0,0,0.5
78,2024-03-18T01:17:00,2.1,北北東,5.8,北北西,7.3,57.4,0,0,0,0.5
79,2024-03-18T01:18:00,2.2,北北東,5.8,北北西,7.3,56.9,0,0,0,0.5
80,2024-03-18T01:19:00,2.1,北北東,5.8,北北西,7.3,57.3,0,0,0,0.5
81,2024-03-18T01:20:00,2.1,北北東,5.8,北北西,7.3,58.4,0,0,0,0.5
82,2024-03-18T01:21:00,1.8,北北東,3.8,北,7.2,59,0,0,0,0.5
83,2024-03-18T01:22:00,1.8,北,3.8,北,7.2,58.8,0,0,0,0.5
84,2024-03-18T01:23:00,1.6,北北東,3.7,北東,7.1,60.1,0,0,0,0.5
85,2024-03-18T01:24:00,1.5,北北東,3.7,北東,7.2,58.6,0,0,0,0.5
86,2024-03-18T01:25:00,1.5,北北東,3.7,北東,7.2,58.5,0,0,0,0.5
87,2024-03-18T01:26:00,1.5,北北東,3.7,北東,7.2,59,0,0,0,0.5
88,2024-03-18T01:27:00,1.6,北,5,北北東,7.1,58.8,0,0,0,0.5
89,2024-03-18T01:28:00,1.9,北,6.2,北,7.2,57.2,0,0,0,0.5
90,2024-03-18T01:29:00,2,北,6.2,北,7.2,56.4,0,0,0,0.5
91,2024-03-18T01:30:00,2.1,北北東,6.2,北,7.2,57.2,0,0,0,0.5
92,2024-03-18T01:31:00,2.2,北北東,6.2,北,7.2,57.5,0,0,0,0.5
93,2024-03-18T01:32:00,2.3,北北東,6.2,北,7.1,57.6,0,0,0,0.5
94,2024-03-18T01:33:00,2.5,北北東,6.2,北,7.2,56.9,0,0,0,0.5
95,2024-03-18T01:34:00,2.9,北北東,6.2,北,7.1,56.9,0,0,0,0.5
96,2024-03-18T01:35:00,3.2,北北東,9.5,北,7.1,56.5,0,0,0,0.5
97,2024-03-18T01:36:00,3.6,北北東,9.5,北,7.1,55.5,0,0,0,0.5
98,2024-03-18T01:37:00,3.7,北,9.5,北,7.1,55.4,0,0,0,0.5
99,2024-03-18T01:38:00,3.6,北,9.5,北,7.1,55.6,0,0,0,0.5
100,2024-03-18T01:39:00,3.7,北北東,9.5,北,7.1,55.8,0,0,0,0.5
101,2024-03-18T01:40:00,3.9,北北東,9.5,北,7.2,55.2,0,0,0,0.5
102,2024-03-18T01:41:00,3.9,北北東,9.5,北,7.1,54.7,0,0,0,0.5
103,2024-03-18T01:42:00,3.9,北北東,9.5,北,7.2,55,0,0,0,0.5
104,2024-03-18T01:43:00,4,北北東,9.5,北,7.1,54.5,0,0,0,0.5
105,2024-03-18T01:44:00,3.7,北北東,9.5,北,7.2,55,0,0,0,0.5
106,2024-03-18T01:45:00,3.5,北北東,8.3,北北西,7.1,55.1,0,0,0,0.5
107,2024-03-18T01:46:00,3.1,北北東,6.8,北,7,56.7,0,0,0,0.5
108,2024-03-18T01:47:00,3.1,北北東,5.7,北北東,7,55.8,0,0,0,0.5
109,2024-03-18T01:48:00,3.2,北北東,7,北北東,7.1,54.9,0,0,0,0.5
110,2024-03-18T01:49:00,3.2,北北東,7,北北東,7.1,54.6,0,0,0,0.5
111,2024-03-18T01:50:00,3.1,北北東,7,北北東,7.1,54.7,0,0,0,0.5
112,2024-03-18T01:51:00,3.2,北北東,7,北北東,7.1,54.6,0,0,0,0.5
113,2024-03-18T01:52:00,3.2,北北東,7,北北東,7.1,54.3,0,0,0,0.5
114,2024-03-18T01:53:00,3.1,北北東,7,北北東,7.1,54.6,0,0,0,0.5
115,2024-03-18T01:54:00,3.2,北東,7,北北東,7,55.1,0,0,0,0.5
116,2024-03-18T01:55:00,3.2,北東,7,北北東,7,55.4,0,0,0,0.5
117,2024-03-18T01:56:00,3.2,北東,7,北北東,6.9,55.7,0,0,0,0.5
118,2024-03-18T01:57:00,3.1,北東,7,北北東,6.9,55.8,0,0,0,0.5
119,2024-03-18T01:58:00,2.8,北東,5.8,北北東,6.9,55.7,0,0,0,0.5
120,2024-03-18T01:59:00,2.6,北東,5.5,北東,6.9,55.2,0,0,0,0.5
121,2024-03-18T02:00:00,2.7,北東,6.1,北東,6.9,54.9,0,0,0,0.5
122,2024-03-18T02:01:00,2.7,北東,6.1,北東,6.9,54.5,0,0,0,0.5
123,2024-03-18T02:02:00,2.5,北東,6.1,北東,7,54.1,0,0,0,0.5
124,2024-03-18T02:03:00,2.6,北東,6.1,北東,6.9,55.2,0,0,0,0.5
125,2024-03-18T02:04:00,2.6,北北東,6.1,北東,6.9,54.4,0,0,0,0.5
126,2024-03-18T02:05:00,2.7,北東,6.1,北東,6.9,54.7,0,0,0,0.5
127,2024-03-18T02:06:00,2.7,北東,6.1,北東,6.9,54.9,0,0,0,0.5
128,2024-03-18T02:07:00,2.8,北東,6.1,北東,6.8,55.1,0,0,0,0.5
129,2024-03-18T02:08:00,3.1,北東,6.1,北東,6.8,55.8,0,0,0,0.5
130,2024-03-18T02:09:00,3.2,北東,6.1,北東,6.8,55.5,0,0,0,0.5
131,2024-03-18T02:10:00,3.2,北東,6,北北東,6.8,55.7,0,0,0,0.5
132,2024-03-18T02:11:00,3.1,北東,5.7,北東,6.8,56.1,0,0,0,0.5
133,2024-03-18T02:12:00,3.4,北東,5.9,北北東,6.8,55.9,0,0,0,0.5
134,2024-03-18T02:13:00,3.5,北東,5.9,北北東,6.8,55.5,0,0,0,0.5
135,2024-03-18T02:14:00,3.4,北東,5.9,北北東,6.8,55.7,0,0,0,0.5
136,2024-03-18T02:15:00,3.4,北東,5.9,北北東,6.8,55.7,0,0,0,0.5
137,2024-03-18T02:16:00,3.2,北北東,5.9,北北東,6.8,55.3,0,0,0,0.5
138,2024-03-18T02:17:00,3.1,北北東,5.9,北北東,6.8,55.7,0,0,0,0.5
139,2024-03-18T02:18:00,2.7,北東,5.9,北北東,6.7,55.8,0,0,0,0.5
140,2024-03-18T02:19:00,2.4,北東,5.9,北北東,6.7,55.7,0,0,0,0.5
141,2024-03-18T02:20:00,2.2,北東,5.9,北北東,6.7,56,0,0,0,0.5
142,2024-03-18T02:21:00,1.9,北東,5.9,北北東,6.7,56,0,0,0,0.5
143,2024-03-18T02:22:00,1.6,北東,5.6,北北東,6.7,56,0,0,0,0.5
144,2024-03-18T02:23:00,1.3,北東,3.4,北,6.6,56.5,0,0,0,0.5
145,2024-03-18T02:24:00,1.2,北東,3.3,北北東,6.7,56.5,0,0,0,0.5
146,2024-03-18T02:25:00,1.2,北東,3.1,北北東,6.7,56.2,0,0,0,0.5
147,2024-03-18T02:26:00,1.3,東北東,5,北東,6.7,56.3,0,0,0,0.5
148,2024-03-18T02:27:00,1.3,東北東,5,北東,6.8,55.9,0,0,0,0.5
149,2024-03-18T02:28:00,1.6,東北東,5,北東,6.7,56.1,0,0,0,0.5
150,2024-03-18T02:29:00,1.8,北東,5,北東,6.7,56.2,0,0,0,0.5
151,2024-03-18T02:30:00,2,北東,5,北東,6.7,56.2,0,0,0,0.5
152,2024-03-18T02:31:00,2.3,北東,5,北東,6.7,56.2,0,0,0,0.5
153,2024-03-18T02:32:00,2.7,北東,6.1,東北東,6.7,56.5,0,0,0,0.5
154,2024-03-18T02:33:00,2.9,北東,6.1,東北東,6.8,56.8,0,0,0,0.5
155,2024-03-18T02:34:00,3.1,北東,6.1,東北東,6.7,56.7,0,0,0,0.5
156,2024-03-18T02:35:00,3.2,北東,6.1,東北東,6.8,56.4,0,0,0,0.5
157,2024-03-18T02:36:00,3.2,北東,6.1,東北東,6.8,56.5,0,0,0,0.5
158,2024-03-18T02:37:00,3.3,北東,6.1,東北東,6.7,56.7,0,0,0,0.5
159,2024-03-18T02:38:00,3.2,北東,6.1,東北東,6.7,57,0,0,0,0.5
160,2024-03-18T02:39:00,3.3,北東,6.1,東北東,6.7,57.5,0,0,0,0.5
161,2024-03-18T02:40:00,3.3,北東,6.1,東北東,6.7,58,0,0,0,0.5
162,2024-03-18T02:41:00,3.2,北東,6.1,東北東,6.7,57.9,0,0,0,0.5
163,2024-03-18T02:42:00,3,北東,5.3,北東,6.7,57.6,0,0,0,0.5
164,2024-03-18T02:43:00,2.9,北東,5.3,北東,6.7,57.6,0,0,0,0.5
165,2024-03-18T02:44:00,2.9,北東,5.3,北東,6.7,58.3,0,0,0,0.5
166,2024-03-18T02:45:00,2.9,北東,5.3,北東,6.7,57.9,0,0,0,0.5
167,2024-03-18T02:46:00,2.8,北東,5.3,北東,6.7,57.9,0,0,0,0.5
168,2024-03-18T02:47:00,2.8,北東,5.3,北東,6.7,58.1,0,0,0,0.5
169,2024-03-18T02:48:00,2.8,北東,5.3,北東,6.7,58.4,0,0,0,0.5
170,2024-03-18T02:49:00,2.6,北東,4.7,北北東,6.7,58.2,0,0,0,0.5
171,2024-03-18T02:50:00,2.4,北東,4.7,北北東,6.6,59,0,0,0,0.5
172,2024-03-18T02:51:00,2.5,北東,4.7,北北東,6.6,59.6,0,0,0,0.5
173,2024-03-18T02:52:00,2.6,北東,4.7,北北東,6.6,59.3,0,0,0,0.5
174,2024-03-18T02:53:00,2.5,北東,4.7,北北東,6.6,59.5,0,0,0,0.5
175,2024-03-18T02:54:00,2.4,北東,4.7,北北東,6.6,59.5,0,0,0,0.5
176,2024-03-18T02:55:00,2.3,北東,4.7,北東,6.7,58.7,0,0,0,0.5
177,2024-03-18T02:56:00,2.2,北東,4.7,北東,6.7,58.9,0,0,0,0.5
178,2024-03-18T02:57:00,2.1,北東,4.7,北東,6.6,59.5,0,0,0,0.5
179,2024-03-18T02:58:00,2.1,北東,4.7,北東,6.6,59.3,0,0,0,0.5
180,2024-03-18T02:59:00,2.2,北東,4.7,北東,6.6,59,0,0,0,0.5
181,2024-03-18T03:00:00,2.4,北東,4.8,北東,6.6,58.9,0,0,0,0.5
182,2024-03-18T03:01:00,2.3,北東,4.8,北東,6.6,59,0,0,0,0.5
183,2024-03-18T03:02:00,2.2,北東,4.8,北東,6.7,59.2,0,0,0,0.5
184,2024-03-18T03:03:00,2,北東,4.8,北東,6.6,59.6,0,0,0,0.5
185,2024-03-18T03:04:00,2,北東,4.8,北東,6.6,59.2,0,0,0,0.5
186,2024-03-18T03:05:00,2,北東,4.8,北東,6.6,59.4,0,0,0,0.5
187,2024-03-18T03:06:00,2.1,北東,4.8,北東,6.6,59.4,0,0,0,0.5
188,2024-03-18T03:07:00,2.1,北東,4.8,北東,6.6,59.8,0,0,0,0.5
189,2024-03-18T03:08:00,1.9,北東,4.8,北東,6.6,58.9,0,0,0,0.5
190,2024-03-18T03:09:00,1.8,北東,4.8,北東,6.6,59.1,0,0,0,0.5
191,2024-03-18T03:10:00,1.9,北東,5.1,北東,6.6,59.1,0,0,0,0.5
192,2024-03-18T03:11:00,1.9,北東,5.1,北東,6.6,59.5,0,0,0,0.5
193,2024-03-18T03:12:00,1.9,北東,5.1,北東,6.6,59.6,0,0,0,0.5
194,2024-03-18T03:13:00,1.9,北東,5.1,北東,6.6,59.1,0,0,0,0.5
195,2024-03-18T03:14:00,1.8,北東,5.1,北東,6.6,59.9,0,0,0,0.5
196,2024-03-18T03:15:00,1.8,北東,5.1,北東,6.6,59.7,0,0,0,0.5
197,2024-03-18T03:16:00,2,北東,6.2,北東,6.6,59.4,0,0,0,0.5
198,2024-03-18T03:17:00,2.2,北東,6.4,東北東,6.6,58.4,0,0,0,0.5
199,2024-03-18T03:18:00,2.5,北東,6.8,東北東,6.6,58.9,0,0,0,0.5
200,2024-03-18T03:19:00,2.6,北東,6.8,東北東,6.5,59.8,0,0,0,0.5
201,2024-03-18T03:20:00,2.4,北東,6.8,東北東,6.6,59.5,0,0,0,0.5
202,2024-03-18T03:21:00,2.5,北東,6.8,東北東,6.5,58.6,0,0,0,0.5
203,2024-03-18T03:22:00,2.6,北東,6.8,東北東,6.6,58.7,0,0,0,0.5
204,2024-03-18T03:23:00,2.7,北東,6.8,東北東,6.5,58.9,0,0,0,0.5
205,2024-03-18T03:24:00,2.8,北東,6.8,東北東,6.6,57.9,0,0,0,0.5
206,2024-03-18T03:25:00,2.9,北北東,6.8,東北東,6.5,58.1,0,0,0,0.5
207,2024-03-18T03:26:00,2.8,北北東,6.8,東北東,6.5,58.4,0,0,0,0.5
208,2024-03-18T03:27:00,2.5,北北東,6.8,東北東,6.5,58.7,0,0,0,0.5
209,2024-03-18T03:28:00,2.3,北北東,5.9,北北東,6.5,57.8,0,0,0,0.5
210,2024-03-18T03:29:00,2.4,北北東,5.9,北北東,6.5,58.3,0,0,0,0.5
211,2024-03-18T03:30:00,2.5,北北東,5.9,北北東,6.5,57.7,0,0,0,0.5
212,2024-03-18T03:31:00,2.6,北北東,6.4,北北東,6.5,57.6,0,0,0,0.5
213,2024-03-18T03:32:00,2.7,北北東,6.4,北北東,6.5,57.1,0,0,0,0.5
214,2024-03-18T03:33:00,2.8,北北東,6.4,北北東,6.4,58,0,0,0,0.5
215,2024-03-18T03:34:00,3,北北東,6.4,北北東,6.3,57.9,0,0,0,0.5
216,2024-03-18T03:35:00,3.1,北北東,6.4,北北東,6.4,57.3,0,0,0,0.5
217,2024-03-18T03:36:00,3.2,北北東,6.4,北北東,6.4,57.2,0,0,0,0.5
218,2024-03-18T03:37:00,3.3,北北東,6.4,北北東,6.4,58,0,0,0,0.5
219,2024-03-18T03:38:00,3.3,北北東,6.4,北北東,6.4,57.7,0,0,0,0.5
220,2024-03-18T03:39:00,3.3,北北東,6.4,北北東,6.4,57,0,0,0,0.5
221,2024-03-18T03:40:00,3.2,北北東,6.4,北北東,6.4,56.6,0,0,0,0.5
222,2024-03-18T03:41:00,3.1,北北東,5.6,北,6.4,56.4,0,0,0,0.5
223,2024-03-18T03:42:00,3,北東,5.6,北,6.5,56.7,0,0,0,0.5
224,2024-03-18T03:43:00,3,北東,5.6,北,6.4,56.4,0,0,0,0.5
225,2024-03-18T03:44:00,3.1,北東,5.6,北,6.5,56.4,0,0,0,0.5
226,2024-03-18T03:45:00,3,北東,5.1,北東,6.4,57.2,0,0,0,0.5
227,2024-03-18T03:46:00,3.1,北東,5.2,北東,6.4,57.3,0,0,0,0.5
228,2024-03-18T03:47:00,3.2,北東,6.3,北北東,6.4,57.4,0,0,0,0.5
229,2024-03-18T03:48:00,3.2,北東,6.3,北北東,6.4,57.1,0,0,0,0.5
230,2024-03-18T03:49:00,3,北東,6.3,北北東,6.4,57.8,0,0,0,0.5
231,2024-03-18T03:50:00,2.9,北東,6.3,北北東,6.3,57.7,0,0,0,0.5
232,2024-03-18T03:51:00,3,北東,7,北,6.3,57.8,0,0,0,0.5
233,2024-03-18T03:52:00,3,北東,7,北,6.3,57,0,0,0,0.5
234,2024-03-18T03:53:00,2.9,北北東,7,北,6.3,56.7,0,0,0,0.5
235,2024-03-18T03:54:00,2.9,北北東,7,北,6.3,56.6,0,0,0,0.5
236,2024-03-18T03:55:00,2.9,北北東,7,北,6.3,57.2,0,0,0,0.5
237,2024-03-18T03:56:00,2.8,北北東,7,北,6.3,57.6,0,0,0,0.5
238,2024-03-18T03:57:00,2.5,北北東,7,北,6.3,57.1,0,0,0,0.5
239,2024-03-18T03:58:00,2.6,北北東,7,北,6.3,57,0,0,0,0.5
240,2024-03-18T03:59:00,2.7,北北東,7,北,6.3,56.8,0,0,0,0.5
241,2024-03-18T04:00:00,2.8,北北東,7,北,6.3,56.8,0,0,0,0.5
242,2024-03-18T04:01:00,2.8,北北東,5.6,東北東,6.3,56.5,0,0,0,0.5
243,2024-03-18T04:02:00,2.9,北北東,5.6,東北東,6.3,56.6,0,0,0,0.5
244,2024-03-18T04:03:00,2.9,北北東,5.6,東北東,6.2,56.8,0,0,0,0.5
245,2024-03-18T04:04:00,3,北東,6.5,北北東,6.3,57,0,0,0,0.5
246,2024-03-18T04:05:00,3.1,北東,6.5,北北東,6.3,56.9,0,0,0,0.5
247,2024-03-18T04:06:00,3.2,北東,6.5,北北東,6.3,57.1,0,0,0,0.5
248,2024-03-18T04:07:00,3.2,北北東,6.5,北北東,6.2,57.4,0,0,0,0.5
249,2024-03-18T04:08:00,3.1,北北東,6.5,北北東,6.2,57.8,0,0,0,0.5
250,2024-03-18T04:09:00,3.1,北北東,6.5,北北東,6.2,57.8,0,0,0,0.5
251,2024-03-18T04:10:00,2.9,北北東,6.5,北北東,6.3,57,0,0,0,0.5
252,2024-03-18T04:11:00,2.7,北北東,6.5,北北東,6.2,57.7,0,0,0,0.5
253,2024-03-18T04:12:00,2.6,北北東,6.5,北北東,6.2,57.3,0,0,0,0.5
254,2024-03-18T04:13:00,2.6,北北東,6.5,北北東,6.3,56.6,0,0,0,0.5
255,2024-03-18T04:14:00,2.4,北北東,5.5,北東,6.2,57.4,0,0,0,0.5
256,2024-03-18T04:15:00,2.4,北北東,4.8,北北西,6.2,57.1,0,0,0,0.5
257,2024-03-18T04:16:00,2.4,北北東,5.5,北,6.2,57.4,0,0,0,0.5
258,2024-03-18T04:17:00,2.4,北北東,5.5,北,6.2,57.6,0,0,0,0.5
259,2024-03-18T04:18:00,2.5,北北東,5.5,北,6,58.5,0,0,0,0.5
260,2024-03-18T04:19:00,2.6,北北東,5.5,北,6.1,58.2,0,0,0,0.5
261,2024-03-18T04:20:00,3,北北東,8.8,北東,6.1,58.1,0,0,0,0.5
262,2024-03-18T04:21:00,3.3,北北東,8.8,北東,6.1,58.2,0,0,0,0.5
263,2024-03-18T04:22:00,3.4,北北東,8.8,北東,6.1,58.1,0,0,0,0.5
264,2024-03-18T04:23:00,3.5,北北東,8.8,北東,6.1,58,0,0,0,0.5
265,2024-03-18T04:24:00,3.3,北北東,8.8,北東,6.1,58.3,0,0,0,0.5
266,2024-03-18T04:25:00,3.2,北北東,8.8,北東,6.1,58.5,0,0,0,0.5
267,2024-03-18T04:26:00,3,北北東,8.8,北東,6.1,58.3,0,0,0,0.5
268,2024-03-18T04:27:00,3,北北東,8.8,北東,6.1,57.9,0,0,0,0.5
269,2024-03-18T04:28:00,2.9,北北東,8.8,北東,6.1,57.3,0,0,0,0.5
270,2024-03-18T04:29:00,2.8,北北東,8.8,北東,6.1,57.8,0,0,0,0.5
271,2024-03-18T04:30:00,2.4,北北東,6.2,北,6.1,58.1,0,0,0,0.5
272,2024-03-18T04:31:00,2.2,北北東,4.2,北北東,6.1,58,0,0,0,0.5
273,2024-03-18T04:32:00,2.1,北北東,4.2,北北東,6.1,58,0,0,0,0.5
274,2024-03-18T04:33:00,2.2,北北東,4.3,北北東,6.1,58,0,0,0,0.5
275,2024-03-18T04:34:00,2.2,北北東,4.3,北北東,6.1,58.3,0,0,0,0.5
276,2024-03-18T04:35:00,2.2,北北東,4.3,北北東,6.1,58.3,0,0,0,0.5
277,2024-03-18T04:36:00,2.1,北北東,4.3,北北東,6.1,58.2,0,0,0,0.5
278,2024-03-18T04:37:00,2.1,北,4.3,北北東,6.1,59,0,0,0,0.5
279,2024-03-18T04:38:00,2,北,4.3,北北東,6.1,59,0,0,0,0.5
280,2024-03-18T04:39:00,2.1,北,4.3,北北東,6.1,58.8,0,0,0,0.5
281,2024-03-18T04:40:00,2.2,北,4.6,北東,6,59,0,0,0,0.5
282,2024-03-18T04:41:00,2.4,北北東,5.5,北東,6,58.3,0,0,0,0.5
283,2024-03-18T04:42:00,2.5,北北東,5.5,北東,6.1,58.5,0,0,0,0.5
284,2024-03-18T04:43:00,2.5,北,5.5,北東,6.1,58.3,0,0,0,0.5
285,2024-03-18T04:44:00,2.4,北,5.5,北東,6.1,58,0,0,0,0.5
286,2024-03-18T04:45:00,2.5,北北東,5.5,北東,6.1,57.7,0,0,0,0.5
287,2024-03-18T04:46:00,2.6,北北東,5.5,北東,6.1,58.4,0,0,0,0.5
288,2024-03-18T04:47:00,2.9,北北東,6.4,北東,6,58,0,0,0,0.5
289,2024-03-18T04:48:00,3.3,北北東,6.4,北東,6,58.2,0,0,0,0.5
290,2024-03-18T04:49:00,3.2,北北東,6.4,北東,6,57.9,0,0,0,0.5
291,2024-03-18T04:50:00,3.1,北北東,6.4,北東,6,58.1,0,0,0,0.5
292,2024-03-18T04:51:00,3,北北東,6.4,北東,6,58.1,0,0,0,0.5
293,2024-03-18T04:52:00,3.2,北北東,6.5,北東,6,57,0,0,0,0.5
294,2024-03-18T04:53:00,3.3,北東,7.2,北東,6.1,56.9,0,0,0,0.5
295,2024-03-18T04:54:00,3.3,北東,7.2,北東,6.1,57.2,0,0,0,0.5
296,2024-03-18T04:55:00,3.5,北東,7.2,北東,6.1,57.4,0,0,0,0.5
297,2024-03-18T04:56:00,3.6,北東,7.2,北東,6.1,57.3,0,0,0,0.5
298,2024-03-18T04:57:00,3.6,北東,7.2,北東,6.1,56.9,0,0,0,0.5
299,2024-03-18T04:58:00,3.4,北東,7.2,北東,6.1,56.7,0,0,0,0.5
300,2024-03-18T04:59:00,3.5,北北東,7.2,北東,6,57.5,0,0,0,0.5
301,2024-03-18T05:00:00,3.7,北北東,7.2,北東,6,57.4,0,0,0,0.5
302,2024-03-18T05:01:00,3.7,北北東,7.2,北東,6,57.3,0,0,0,0.5
303,2024-03-18T05:02:00,3.4,北北東,7.2,北東,6,57.8,0,0,0,0.5
304,2024-03-18T05:03:00,3.2,北北東,6.1,北北東,6,57.5,0,0,0,0.5
305,2024-03-18T05:04:00,3.1,北北東,6.1,北北東,6.1,57.2,0,0,0,0.5
306,2024-03-18T05:05:00,3.1,北北東,6.1,北北東,6,57.4,0,0,0,0.5
307,2024-03-18T05:06:00,3,北北東,6.1,北北東,6,57.6,0,0,0,0.5
308,2024-03-18T05:07:00,2.8,北,5.3,北,6,58.4,0,0,0,0.5
309,2024-03-18T05:08:00,2.6,北,5.3,北,6,57.9,0,0,0,0.5
310,2024-03-18T05:09:00,2.5,北,5.3,北,6,58.4,0,0,0,0.5
311,2024-03-18T05:10:00,2.5,北,5.4,北北東,6,57,0,0,0,0.5
312,2024-03-18T05:11:00,2.6,北,5.4,北北東,6.1,56.9,0,0,0,0.5
313,2024-03-18T05:12:00,2.9,北,6.8,北北東,6.1,57.3,0,0,0,0.5
314,2024-03-18T05:13:00,3.1,北,6.8,北北東,6.1,56.7,0,0,0,0.5
315,2024-03-18T05:14:00,3.1,北,6.8,北北東,6.1,57.8,0,0,0,0.5
316,2024-03-18T05:15:00,3.1,北,6.8,北北東,6,58,0,0,0,0.5
317,2024-03-18T05:16:00,3.2,北,6.8,北北東,6.1,56.8,0,0,0,0.5
318,2024-03-18T05:17:00,3.3,北,6.8,北北東,6.1,57.1,0,0,0,0.5
319,2024-03-18T05:18:00,3.3,北,6.8,北北東,6,57.3,0,0,0,0.5
320,2024-03-18T05:19:00,3.2,北,6.8,北北東,6.1,56.6,0,0,0,0.5
321,2024-03-18T05:20:00,3,北,6.8,北北東,6,57.1,0,0,0,0.5
322,2024-03-18T05:21:00,2.9,北,6.8,北北東,6,57,0,0,0,0.5
323,2024-03-18T05:22:00,2.7,北,6.5,北,6,56.9,0,0,0,0.5
324,2024-03-18T05:23:00,2.6,北,5.6,北北東,6,57.4,0,0,0,0.5
325,2024-03-18T05:24:00,2.6,北北東,5.6,北北東,6,56.8,0,0,0,0.5
326,2024-03-18T05:25:00,2.6,北北東,5.6,北北東,6,56.6,0,0,0,0.5
327,2024-03-18T05:26:00,2.5,北北東,5.6,北北東,6,56.9,0,0,0,0.5
328,2024-03-18T05:27:00,2.4,北北東,5.6,北北東,6,57.5,0,0,0,0.5
329,2024-03-18T05:28:00,2.3,北北東,5.6,北北東,6.1,57,0,0,0,0.5
330,2024-03-18T05:29:00,2.4,北東,5.6,北北東,6.1,57,0,0,0,0.5
331,2024-03-18T05:30:00,2.4,北東,5.6,北北東,6,57.3,0,0,0,0.5
332,2024-03-18T05:31:00,2.4,北東,5.6,北北東,6.1,56.4,0,0,0,0.5
333,2024-03-18T05:32:00,2.3,北東,5.6,北北東,6.1,56.3,0,0,0,0.5
334,2024-03-18T05:33:00,2.2,北東,4.5,東北東,6.1,56.4,0,0,0,0.5
335,2024-03-18T05:34:00,2.1,北東,5.4,北北東,6.1,56.6,0,0,0,0.5
336,2024-03-18T05:35:00,2.2,北北東,6.1,北,6.1,57.2,0,0,0,0.5
337,2024-03-18T05:36:00,2.4,北北東,6.1,北,6.1,56.4,0,0,0,0.5
338,2024-03-18T05:37:00,2.5,北北東,6.1,北,6,57.4,0,0,0,0.5
339,2024-03-18T05:38:00,2.7,北北東,6.1,北,6,57.2,0,0,0,0.5
340,2024-03-18T05:39:00,2.8,北北東,6.1,北,6,57.1,0,0,0,0.5
341,2024-03-18T05:40:00,2.9,北北東,6.1,北,6,57.1,0,0,0,0.5
342,2024-03-18T05:41:00,3,北北東,6.1,北,6.1,56.5,0,0,0,0.5
343,2024-03-18T05:42:00,3.1,北北東,6.1,北,6.1,56.6,0,0,0,0.5
344,2024-03-18T05:43:00,3.1,北北東,6.1,北,6,57.6,0,0,0,0.5
345,2024-03-18T05:44:00,3.2,北北東,6.9,北東,6,57.5,0,0,0,0.5
346,2024-03-18T05:45:00,3.3,北北東,7.1,北北東,6,56.9,0,0,0,0.5
347,2024-03-18T05:46:00,3.4,北北東,7.1,北北東,6.1,56,0,0,0,0.5
348,2024-03-18T05:47:00,3.5,北北東,7.1,北北東,6,56.3,0,0,0,0.5
349,2024-03-18T05:48:00,3.5,北北東,7.1,北北東,6,56.7,0,0,0,0.5
350,2024-03-18T05:49:00,3.4,北北東,7.1,北北東,6,56.8,0,0,0,0.5
351,2024-03-18T05:50:00,3.4,北北東,7.1,北北東,6,56.8,0,0,0,0.5
352,2024-03-18T05:51:00,3.3,北北東,7.1,北北東,6,56.5,0,0,0,0.5
353,2024-03-18T05:52:00,3.3,北北東,7.1,北北東,6,56,0,0,0,0.5
354,2024-03-18T05:53:00,3.3,北北東,7.1,北北東,6,55.6,0,0,0,0.5
355,2024-03-18T05:54:00,3.4,北,7.1,北北東,6,55.8,0,0,0,0.5
356,2024-03-18T05:55:00,3.3,北,6.8,北,6.1,54.6,0,0,0,0.5
357,2024-03-18T05:56:00,3.3,北,6.8,北,6.1,54.2,0,0,0,0.5
358,2024-03-18T05:57:00,3.3,北,5.9,北北西,6.1,55,0,0,0,0.5
359,2024-03-18T05:58:00,3.3,北,5.9,北北西,6.1,54.9,0,0,0,0.5
360,2024-03-18T05:59:00,3.3,北北西,5.9,北北西,6,54.7,0,0,0,0.5
361,2024-03-18T06:00:00,3.3,北北西,5.9,北北西,6,53.4,0,0,0,0.5
362,2024-03-18T06:01:00,3.5,北北西,7.1,北北東,6,53.4,0,0,0,0.5
363,2024-03-18T06:02:00,3.7,北北西,7.8,北北西,6.2,50.5,0,0,0,0.5
364,2024-03-18T06:03:00,4,北北西,8.4,北北西,6.2,48.8,0,0,0,0.5
365,2024-03-18T06:04:00,4.3,北北西,10.1,北,6.3,48.6,0,0,0,0.5
366,2024-03-18T06:05:00,4.5,北北西,12.7,北西,6.3,48.8,0,0,0,0.5
367,2024-03-18T06:06:00,4.7,北北西,12.7,北西,6.3,48.1,0,0,0,0.5
368,2024-03-18T06:07:00,5,北北西,12.7,北西,6.3,48.5,0,0,0,0.5
369,2024-03-18T06:08:00,5.4,北北西,12.7,北西,6.4,47.9,0,0,0,0.5
370,2024-03-18T06:09:00,5.6,北北西,12.7,北西,6.3,48.4,0,0,0,0.5
371,2024-03-18T06:10:00,5.7,北北西,12.7,北西,6.3,49,0,0,0,0.5
372,2024-03-18T06:11:00,5.6,北北西,12.7,北西,6.2,48.8,0,0,0,0.5
373,2024-03-18T06:12:00,5.5,北北西,12.7,北西,6.2,48.7,0,0,0,0.5
374,2024-03-18T06:13:00,5.3,北北西,12.7,北西,6.2,49.1,0,0,0,0.5
375,2024-03-18T06:14:00,5.1,北北西,12.7,北西,6.2,48.7,0,0,0,0.5
376,2024-03-18T06:15:00,4.8,北北西,10,北北西,6.2,49.1,0,0,0,0.5
377,2024-03-18T06:16:00,4.7,北,10,北北西,6.2,48.8,0,0,0,0.5
378,2024-03-18T06:17:00,4.5,北,10,北北西,6.3,48.8,0,0,0,0.5
379,2024-03-18T06:18:00,4.2,北,8.8,北北東,6.3,48.8,0,0,0,0.5
380,2024-03-18T06:19:00,4.2,北,8.8,北北東,6.2,49,0,0,0,0.5
381,2024-03-18T06:20:00,4.4,北,8.9,北北西,6.2,49,0,0,0,0.5
382,2024-03-18T06:21:00,4.7,北,8.9,北北西,6.3,48.4,0,0,0,0.5
383,2024-03-18T06:22:00,5.1,北,8.9,北北西,6.3,48.4,0,0,0,0.5
384,2024-03-18T06:23:00,5.2,北,8.9,北北西,6.3,48.7,0,0,0,0.5
385,2024-03-18T06:24:00,5,北,8.9,北北西,6.2,49.3,0,0,0,0.5
386,2024-03-18T06:25:00,5,北,8.9,北北西,6.2,49.5,0,0,0,0.5
387,2024-03-18T06:26:00,4.6,北,8.9,北北西,6.1,49.9,0,0,0,0.5
388,2024-03-18T06:27:00,4.6,北,8.9,北北西,6.1,50.1,0,0,0,0.5
389,2024-03-18T06:28:00,4.8,北,8.9,北北西,6.1,49.6,0,0,0,0.5
390,2024-03-18T06:29:00,4.8,北,8.9,北北西,6.1,49.3,0,0,0,0.5
391,2024-03-18T06:30:00,4.6,北,8.5,北北西,6.1,50,0,0,0,0.5
392,2024-03-18T06:31:00,4.1,北北東,7.9,北北西,6.1,49,0,0,0,0.5
393,2024-03-18T06:32:00,3.7,北北東,7.5,北,6,49.8,0,0,0,0.5
394,2024-03-18T06:33:00,3.7,北北東,7.5,北,6,49.9,0,0,0,0.5
395,2024-03-18T06:34:00,3.7,北北東,7.5,北,6,49.8,0,0,0,0.5
396,2024-03-18T06:35:00,3.8,北北東,7.5,北,6,50.8,0,0,0,0.5
397,2024-03-18T06:36:00,4,北北東,7.5,北,6,50.4,0,0,0,0.5
398,2024-03-18T06:37:00,3.7,北北東,7.5,北,6,51,0,0,0,0.5
399,2024-03-18T06:38:00,3.3,北北東,6.7,北北東,5.9,51,0,0,0,0.5
400,2024-03-18T06:39:00,3.1,北北東,6.7,北北東,5.9,51.9,0,0,0,0.5
401,2024-03-18T06:40:00,2.9,北北東,6.7,北北東,5.9,51.4,0,0,0,0.5
402,2024-03-18T06:41:00,3.1,北北東,6.7,北北東,5.9,51.1,0,0,0,0.5
403,2024-03-18T06:42:00,3.2,北北東,6.7,北北東,6,50.4,0,0,0,0.5
404,2024-03-18T06:43:00,3.1,北北東,6.7,北北東,6,50.3,0,0,0,0.5
405,2024-03-18T06:44:00,3,北北東,6.7,北北東,6,50.7,0,0,0,0.5
406,2024-03-18T06:45:00,2.8,北北東,6.2,北北東,6,50.7,0,0,0,0.5
407,2024-03-18T06:46:00,2.8,北北東,5.9,北北東,6,51.5,0,0,0,0.5
408,2024-03-18T06:47:00,3,北北東,7.4,北北東,5.9,51.6,0,0,0,0.5
409,2024-03-18T06:48:00,3.3,北北東,7.4,北北東,5.9,51.9,0,0,0,0.5
410,2024-03-18T06:49:00,3.7,北北東,8.1,北北東,5.9,51.9,0,0,0,0.5
411,2024-03-18T06:50:00,4.1,北北東,8.5,北,5.9,52.4,0,0,0,0.5
412,2024-03-18T06:51:00,4.2,北北東,8.5,北,5.9,52.5,0,0,0,0.5
413,2024-03-18T06:52:00,4.2,北北東,8.5,北,5.9,53.2,0,0,0,0.5
414,2024-03-18T06:53:00,4.5,北北東,8.5,北,5.8,53.8,0,0,0,0.5
415,2024-03-18T06:54:00,4.7,北北東,8.5,北,5.8,53.3,0,0,0,0.5
416,2024-03-18T06:55:00,4.7,北北東,8.5,北,5.8,53.4,0,0,0,0.5
417,2024-03-18T06:56:00,4.7,北北東,8.5,北,5.8,53.6,0,0,0,0.5
418,2024-03-18T06:57:00,4.4,北北東,8.5,北,5.8,53.3,0,0,0,0.5
419,2024-03-18T06:58:00,4.2,北北東,8.5,北,5.8,53.7,0,0,0,0.5
420,2024-03-18T06:59:00,3.8,北,8.5,北,5.8,54.5,0,0,0,0.5
421,2024-03-18T07:00:00,3.5,北,8.3,北東,5.8,54.3,0,0,0,0.5
422,2024-03-18T07:01:00,3.3,北,8.3,北東,5.8,54.2,0,0,0,0.5